EW3286 Weather Reports


Display with metric or nautical units.
time (UTC)temp
F
wind
direction
speed
MPH
gust
MPH
rain 1hr
in
rain 24hr
in
rain mn
in
humidity
%
barometer
mb
20260904161534 85 302 0.0 0.0 0.00 0.00 0.00 72 1009.1
20260904160027 84 300 0.0 0.0 0.00 0.00 0.00 75 1009.1
20260904154535 82 300 0.0 0.0 0.00 0.00 0.00 76 1008.9
20260904153019 81 300 0.0 0.0 0.00 0.00 0.00 78 1008.8
20260904151514 81 311 0.0 0.0 0.00 0.00 0.00 79 1009.0
20260904150010 80 292 0.0 0.0 0.00 0.00 0.00 80 1008.9
20260904144507 79 286 0.0 0.0 0.00 0.00 0.00 80 1008.8
20260904143002 78 265 0.0 0.0 0.00 0.00 0.00 82 1008.9
20260904141607 77 257 0.0 0.0 0.00 0.00 0.00 85 1008.9
20260904140053 76 266 0.0 0.0 0.00 0.00 0.00 88 1008.7
20260904134558 74 296 0.0 0.0 0.00 0.00 0.00 90 1008.9
20260904133045 73 279 0.0 0.0 0.00 0.00 0.00 93 1009.2
20260904131541 71 277 0.0 0.0 0.00 0.00 0.00 94 1009.2
20260904130036 70 251 0.0 0.0 0.00 0.00 0.00 95 1009.1
20260904124532 69 194 0.0 0.0 0.00 0.00 0.00 94 1008.7
20260904123032 68 194 0.0 0.0 0.00 0.00 0.00 93 1008.6
20260904121526 68 194 0.0 0.0 0.00 0.00 0.00 93 1008.4
20260904120028 69 194 0.0 0.0 0.00 0.00 0.00 93 1008.2
20260904114520 69 194 0.0 0.0 0.00 0.00 0.00 93 1008.1
20260904113019 69 194 0.0 0.0 0.00 0.00 0.00 93 1008.0
20260904111515 69 125 0.0 0.0 0.00 0.00 0.00 91 1007.5
20260904110012 70 125 0.0 0.0 0.00 0.00 0.00 91 1007.5
20260904104511 70 125 0.0 0.0 0.00 0.00 0.00 91 1007.5
20260904103019 70 125 0.0 0.0 0.00 0.00 0.00 90 1007.2
20260904101507 71 125 0.0 0.0 0.00 0.00 0.00 90 1007.3
20260904100013 71 125 0.0 0.0 0.00 0.00 0.00 90 1007.3
20260904094505 71 125 0.0 0.0 0.00 0.00 0.00 90 1007.5
20260904093002 72 125 0.0 0.0 0.00 0.00 0.00 89 1007.5
20260904091600 72 125 0.0 0.0 0.00 0.00 0.00 89 1007.4
20260904090106 73 125 0.0 0.0 0.00 0.00 0.00 88 1007.3
20260904084556 73 125 0.0 0.0 0.00 0.00 0.00 87 1007.2
20260904083056 74 125 0.0 0.0 0.00 0.00 0.00 87 1007.0
20260904081551 74 125 0.0 0.0 0.00 0.00 0.00 86 1007.1
20260904080049 75 125 0.0 0.0 0.00 0.00 0.00 86 1007.2
20260904074549 75 142 0.0 0.0 0.00 0.00 0.00 87 1007.1
20260904073047 75 149 0.0 0.0 0.00 0.00 0.00 87 1007.0
20260904071554 75 127 0.0 0.0 0.00 0.00 0.00 86 1007.0
20260904070043 76 152 0.0 0.0 0.00 0.00 0.00 86 1007.0
20260904064541 76 151 0.0 0.0 0.00 0.00 0.00 86 1006.9
20260904063041 76 99 0.0 0.0 0.00 0.00 0.00 87 1007.1
20260904061541 76 128 0.0 0.0 0.00 0.00 0.00 87 1006.9
20260904060038 76 107 0.0 0.0 0.00 0.00 0.00 87 1006.9
20260904054541 76 90 0.0 0.0 0.00 0.00 0.00 87 1006.9
20260904053040 76 162 0.0 0.0 0.00 0.00 0.00 88 1006.8
20260904051534 76 98 0.0 0.0 0.00 0.00 0.00 88 1006.7
20260904050032 76 92 0.0 0.0 0.00 0.00 0.00 89 1006.7
20260904044531 76 88 0.0 0.0 0.00 0.00 0.00 90 1006.7
20260904043029 75 89 0.0 0.0 0.00 0.00 0.00 92 1006.7
20260904041528 75 86 0.0 0.0 0.00 0.00 0.00 92 1006.7
20260904040035 75 87 0.0 0.0 0.00 0.00 0.00 91 1006.7
20260904034533 75 87 0.0 0.0 0.00 0.00 0.00 90 1006.8
20260904033027 76 87 0.0 0.0 0.00 0.00 0.00 89 1006.8
20260904031526 76 87 0.0 0.0 0.00 0.00 0.00 87 1006.7
20260904030026 77 87 0.0 0.0 0.00 0.00 0.00 87 1006.6
20260904024526 78 87 0.0 0.0 0.00 0.00 0.00 86 1006.5
20260904023025 78 87 0.0 0.0 0.00 0.00 0.00 87 1006.4
20260904021531 78 84 0.0 0.0 0.00 0.00 0.00 87 1006.2
20260904020023 79 88 0.0 0.0 0.00 0.00 0.00 85 1006.1
20260904014531 79 86 0.0 0.0 0.00 0.00 0.00 84 1006.1
20260904013023 80 85 0.0 0.0 0.00 0.00 0.00 82 1005.9
20260904011538 81 86 0.0 0.0 0.00 0.00 0.00 81 1005.9
20260904010022 82 89 0.0 0.0 0.00 0.00 0.00 80 1005.7
20260904004524 82 88 0.0 0.0 0.00 0.00 0.00 79 1005.5
20260904003021 84 86 0.0 0.0 0.00 0.00 0.00 75 1005.5
20260904001519 85 79 0.0 0.0 0.00 0.00 0.00 72 1005.4
20260904000019 85 78 0.0 0.0 0.00 0.00 0.00 71 1005.3
20260903234518 86 123 0.0 0.0 0.00 0.00 0.00 70 1005.0
20260903233019 87 82 0.0 0.0 0.00 0.00 0.00 70 1004.9
20260903231517 87 79 0.0 0.0 0.00 0.00 0.00 70 1004.8
20260903230017 88 163 0.0 0.0 0.00 0.00 0.00 68 1004.8
20260903224526 88 120 0.0 0.0 0.00 0.00 0.00 68 1004.7
20260903223014 88 103 0.0 0.0 0.00 0.00 0.00 67 1004.6
20260903221511 89 82 0.0 0.0 0.00 0.00 0.00 67 1004.7
20260903220017 88 161 0.0 0.0 0.00 0.00 0.00 68 1004.6
20260903214505 85 131 0.0 0.0 0.00 0.00 0.00 74 1004.5
20260903213002 86 85 0.0 0.0 0.00 0.00 0.00 71 1004.4
20260903211558 85 80 0.0 0.0 0.00 0.00 0.00 75 1004.2
20260903210059 84 76 0.0 0.0 0.00 0.00 0.00 77 1004.3
20260903204551 84 74 0.0 0.0 0.00 0.00 0.00 74 1004.5
20260903203051 84 75 0.0 0.0 0.00 0.00 0.00 73 1004.3
20260903201550 84 112 0.0 0.0 0.00 0.00 0.00 71 1004.4
20260903200049 84 127 0.0 0.0 0.00 0.00 0.00 70 1005.3
20260903194552 84 81 0.0 0.0 0.00 0.00 0.00 69 1006.1
20260903193054 85 127 0.0 0.0 0.00 0.00 0.00 69 1005.6
20260903191547 85 90 0.0 0.0 0.00 0.00 0.00 66 1004.6
20260903190051 86 77 0.0 0.0 0.00 0.00 0.00 66 1004.8
20260903184543 86 82 0.0 0.0 0.00 0.00 0.00 64 1004.7
20260903183040 87 60 0.0 0.0 0.00 0.00 0.00 64 1004.9
20260903181538 85 92 0.0 0.0 0.00 0.00 0.00 67 1005.0
20260903180037 85 82 0.0 0.0 0.00 0.00 0.00 65 1005.0
20260903174532 86 140 0.0 0.0 0.00 0.00 0.00 64 1005.4
20260903173029 86 117 0.0 0.0 0.00 0.00 0.00 64 1005.8
20260903171526 85 84 0.0 0.0 0.00 0.00 0.00 65 1005.8
20260903170022 84 67 0.0 0.0 0.00 0.00 0.00 68 1005.9
20260903164519 84 71 0.0 0.0 0.00 0.00 0.00 67 1006.0
20260903163019 83 76 0.0 0.0 0.00 0.00 0.00 69 1006.1